VLG53FH LPPD-GCXO

Flight info

Callsign VLG53FH
Flight time N/A
Altitude 27000
Route VSM H104 ETROX/N0431F370 DCT GALOZ/N0451F390 DCT ORTIS
Aircraft A320/M-SDE3FGHIRWY/LB1

Departure

Time N/A
Airport João Paulo II Airport (LPPD)

Arrival

Time 2026-04-29 21:44
Airport Tenerife Norte-Ciudad de La Laguna Airport (GCXO)
Time Latitude Longitude Altitude Speed Heading
2026-04-29 19:58 37.34025 -25.46413 17860 ft 395 kts 153°
2026-04-29 19:59 37.31696 -25.44569 18414 ft 399 kts 153°
2026-04-29 19:59 37.29331 -25.42695 18911 ft 404 kts 153°
2026-04-29 19:59 37.26941 -25.40804 19383 ft 409 kts 153°
2026-04-29 19:59 37.24521 -25.38889 19885 ft 414 kts 153°
2026-04-29 20:00 37.22102 -25.36974 20355 ft 419 kts 154°
2026-04-29 20:00 37.19590 -25.34989 20779 ft 425 kts 154°
2026-04-29 20:00 37.17093 -25.33024 21128 ft 432 kts 154°
2026-04-29 20:00 37.14530 -25.31010 21549 ft 438 kts 154°
2026-04-29 20:01 37.11933 -25.28966 21995 ft 443 kts 154°
2026-04-29 20:01 37.09309 -25.26896 22438 ft 448 kts 154°
2026-04-29 20:01 37.06660 -25.24807 22873 ft 452 kts 155°
2026-04-29 20:01 37.03986 -25.22700 23307 ft 457 kts 155°
2026-04-29 20:02 37.01280 -25.20566 23626 ft 461 kts 155°
2026-04-29 20:02 36.98615 -25.18263 23942 ft 473 kts 147°
2026-04-29 20:02 36.96185 -25.15413 24323 ft 484 kts 137°
2026-04-29 20:02 36.94736 -25.13199 24599 ft 489 kts 130°
2026-04-29 20:03 36.92322 -25.08409 25155 ft 494 kts 124°
2026-04-29 20:03 36.90546 -25.04729 25605 ft 495 kts 124°
2026-04-29 20:03 36.88762 -25.01050 26087 ft 494 kts 124°
2026-04-29 20:03 36.86990 -24.97399 26611 ft 490 kts 124°
2026-04-29 20:04 36.85233 -24.93777 26742 ft 488 kts 125°
2026-04-29 20:04 36.83457 -24.90122 26818 ft 496 kts 125°
2026-04-29 20:04 36.81658 -24.86428 26826 ft 499 kts 125°
2026-04-29 20:04 36.79875 -24.82768 26840 ft 500 kts 125°
2026-04-29 20:05 36.78066 -24.79061 26847 ft 500 kts 125°
2026-04-29 20:05 36.76258 -24.75367 26841 ft 500 kts 125°
2026-04-29 20:05 36.74446 -24.71664 26839 ft 500 kts 125°
2026-04-29 20:05 36.72638 -24.67967 26843 ft 497 kts 125°
2026-04-29 20:06 36.70849 -24.64309 26845 ft 493 kts 125°
2026-04-29 20:06 36.69062 -24.60662 26824 ft 494 kts 125°
2026-04-29 20:06 36.67266 -24.57006 26831 ft 496 kts 125°
2026-04-29 20:06 36.65463 -24.53342 26837 ft 497 kts 125°
2026-04-29 20:07 36.63654 -24.49671 26838 ft 497 kts 125°
2026-04-29 20:07 36.61851 -24.46009 26839 ft 497 kts 125°
2026-04-29 20:07 36.60045 -24.42342 26840 ft 497 kts 125°
2026-04-29 20:07 36.58236 -24.38675 26839 ft 497 kts 125°
2026-04-29 20:08 36.56429 -24.35016 26868 ft 495 kts 126°
2026-04-29 20:08 36.55235 -24.32599 26877 ft 494 kts 126°
2026-04-29 20:08 36.52833 -24.27741 26844 ft 493 kts 126°
2026-04-29 20:08 36.51036 -24.24119 26849 ft 493 kts 126°
2026-04-29 20:09 36.49229 -24.20479 26847 ft 493 kts 126°
2026-04-29 20:09 36.47431 -24.16858 26846 ft 493 kts 126°
2026-04-29 20:09 36.45631 -24.13240 26846 ft 493 kts 126°
2026-04-29 20:09 36.43824 -24.09613 26846 ft 493 kts 126°
2026-04-29 20:10 36.42046 -24.06051 26824 ft 492 kts 126°
2026-04-29 20:10 36.40243 -24.02442 26866 ft 491 kts 126°
2026-04-29 20:10 36.38480 -23.98825 26842 ft 490 kts 124°
2026-04-29 20:10 36.36761 -23.95167 26849 ft 490 kts 124°
2026-04-29 20:11 36.35076 -23.91492 26853 ft 491 kts 123°
2026-04-29 20:11 36.33403 -23.87803 26849 ft 491 kts 123°
2026-04-29 20:11 36.31727 -23.84112 26848 ft 491 kts 123°
2026-04-29 20:11 36.30039 -23.80432 26854 ft 491 kts 124°
2026-04-29 20:12 36.28338 -23.76765 26857 ft 491 kts 124°
2026-04-29 20:12 36.26626 -23.73109 26852 ft 490 kts 124°
2026-04-29 20:12 36.24920 -23.69474 26894 ft 488 kts 124°
2026-04-29 20:12 36.23214 -23.65842 26905 ft 486 kts 124°
2026-04-29 20:13 36.21516 -23.62225 26874 ft 486 kts 124°
2026-04-29 20:13 36.20393 -23.59834 26877 ft 485 kts 124°
2026-04-29 20:13 36.18129 -23.55013 26874 ft 485 kts 124°
2026-04-29 20:13 36.16433 -23.51401 26873 ft 485 kts 124°
2026-04-29 20:14 36.14738 -23.47797 26871 ft 485 kts 124°
2026-04-29 20:14 36.13041 -23.44194 26873 ft 485 kts 124°
2026-04-29 20:14 36.11346 -23.40592 26863 ft 483 kts 124°
2026-04-29 20:14 36.09657 -23.37005 26902 ft 481 kts 124°
2026-04-29 20:15 36.07977 -23.33440 26914 ft 480 kts 124°
2026-04-29 20:15 36.06294 -23.29877 26915 ft 478 kts 124°
2026-04-29 20:15 36.04638 -23.26377 26913 ft 477 kts 125°
2026-04-29 20:15 36.02938 -23.22793 26913 ft 476 kts 125°
2026-04-29 20:16 36.01283 -23.19320 26907 ft 476 kts 125°
2026-04-29 20:16 35.99581 -23.15754 26904 ft 475 kts 125°
2026-04-29 20:16 35.97932 -23.12293 26900 ft 475 kts 125°
2026-04-29 20:16 35.96264 -23.08779 26896 ft 473 kts 125°
2026-04-29 20:17 35.94604 -23.05280 26920 ft 471 kts 125°
2026-04-29 20:17 35.92948 -23.01795 26923 ft 469 kts 125°
2026-04-29 20:17 35.91298 -22.98332 26922 ft 467 kts 125°
2026-04-29 20:17 35.89648 -22.94887 26885 ft 467 kts 125°
2026-04-29 20:18 35.87991 -22.91434 26879 ft 467 kts 125°
2026-04-29 20:18 35.86338 -22.87985 26876 ft 467 kts 125°
2026-04-29 20:18 35.84687 -22.84531 26877 ft 468 kts 125°
2026-04-29 20:18 35.83036 -22.81078 26876 ft 468 kts 125°
2026-04-29 20:19 35.81383 -22.77623 26853 ft 468 kts 125°
2026-04-29 20:19 35.79729 -22.74174 26886 ft 466 kts 125°
2026-04-29 20:19 35.78079 -22.70749 26908 ft 465 kts 125°
2026-04-29 20:19 35.76423 -22.67325 26916 ft 464 kts 125°
2026-04-29 20:20 35.74777 -22.63923 26899 ft 463 kts 125°
2026-04-29 20:20 35.73127 -22.60513 26891 ft 463 kts 125°
2026-04-29 20:20 35.71477 -22.57103 26888 ft 463 kts 125°
2026-04-29 20:20 35.69828 -22.53697 26884 ft 464 kts 125°
2026-04-29 20:21 35.68197 -22.50327 26885 ft 464 kts 125°
2026-04-29 20:21 35.66548 -22.46921 26884 ft 464 kts 125°
2026-04-29 20:21 35.64896 -22.43513 26876 ft 463 kts 125°
2026-04-29 20:21 35.63244 -22.40110 26899 ft 462 kts 125°
2026-04-29 20:22 35.61598 -22.36725 26915 ft 462 kts 125°
2026-04-29 20:22 35.59949 -22.33335 26924 ft 461 kts 125°
2026-04-29 20:22 35.58306 -22.29957 26902 ft 460 kts 125°
2026-04-29 20:22 35.56663 -22.26583 26901 ft 460 kts 125°
2026-04-29 20:23 35.55017 -22.23210 26880 ft 461 kts 125°
2026-04-29 20:23 35.53369 -22.19836 26880 ft 461 kts 125°
2026-04-29 20:23 35.51720 -22.16463 26883 ft 461 kts 125°
2026-04-29 20:23 35.50065 -22.13077 26888 ft 461 kts 125°
2026-04-29 20:24 35.48411 -22.09703 26905 ft 462 kts 125°
2026-04-29 20:24 35.46755 -22.06326 26885 ft 462 kts 125°
2026-04-29 20:24 35.45099 -22.02959 26885 ft 462 kts 125°
2026-04-29 20:24 35.43436 -21.99585 26889 ft 462 kts 125°
2026-04-29 20:25 35.41769 -21.96199 26890 ft 462 kts 125°
2026-04-29 20:25 35.40108 -21.92824 26888 ft 463 kts 125°
2026-04-29 20:25 35.38468 -21.89493 26869 ft 464 kts 125°
2026-04-29 20:25 35.36796 -21.86102 26875 ft 465 kts 125°
2026-04-29 20:26 35.35122 -21.82704 26882 ft 466 kts 125°
2026-04-29 20:26 35.33444 -21.79302 26874 ft 466 kts 125°
2026-04-29 20:26 35.31769 -21.75913 26900 ft 465 kts 125°
2026-04-29 20:26 35.30093 -21.72529 26914 ft 464 kts 125°
2026-04-29 20:27 35.28425 -21.69163 26920 ft 463 kts 125°
2026-04-29 20:27 35.27318 -21.66930 26922 ft 463 kts 125°
2026-04-29 20:27 35.25083 -21.62435 26923 ft 462 kts 126°
2026-04-29 20:27 35.23412 -21.59075 26901 ft 462 kts 125°
2026-04-29 20:28 35.21738 -21.55707 26900 ft 463 kts 125°
2026-04-29 20:28 35.20063 -21.52339 26896 ft 464 kts 125°
2026-04-29 20:28 35.18387 -21.48974 26893 ft 464 kts 125°
2026-04-29 20:28 35.16707 -21.45605 26891 ft 464 kts 126°
2026-04-29 20:29 35.15020 -21.42234 26909 ft 463 kts 126°
2026-04-29 20:29 35.13362 -21.38926 26918 ft 463 kts 126°
2026-04-29 20:29 35.11679 -21.35565 26923 ft 462 kts 126°
2026-04-29 20:29 35.10002 -21.32217 26924 ft 462 kts 126°
2026-04-29 20:30 35.08331 -21.28878 26922 ft 461 kts 126°
2026-04-29 20:30 35.06653 -21.25531 26899 ft 461 kts 125°
2026-04-29 20:30 35.04981 -21.22199 26900 ft 462 kts 125°
2026-04-29 20:30 35.03304 -21.18856 26900 ft 462 kts 125°
2026-04-29 20:31 35.01623 -21.15515 26901 ft 462 kts 126°
2026-04-29 20:31 34.99937 -21.12174 26901 ft 462 kts 126°
2026-04-29 20:31 34.98253 -21.08837 26928 ft 461 kts 126°
2026-04-29 20:31 34.96573 -21.05505 26928 ft 461 kts 126°
2026-04-29 20:32 34.94899 -21.02189 26934 ft 460 kts 126°
2026-04-29 20:32 34.93234 -20.98902 26935 ft 460 kts 126°
2026-04-29 20:32 34.91534 -20.95552 26936 ft 459 kts 126°
2026-04-29 20:32 34.90423 -20.93360 26935 ft 459 kts 126°
2026-04-29 20:33 34.88182 -20.88929 26918 ft 460 kts 126°
2026-04-29 20:33 34.86504 -20.85611 26919 ft 460 kts 126°
2026-04-29 20:33 34.84820 -20.82290 26921 ft 460 kts 126°
2026-04-29 20:33 34.83159 -20.79024 26907 ft 460 kts 126°
2026-04-29 20:34 34.81467 -20.75710 26919 ft 460 kts 126°
2026-04-29 20:34 34.79778 -20.72409 26923 ft 459 kts 126°
2026-04-29 20:34 34.78092 -20.69111 26926 ft 459 kts 126°
2026-04-29 20:34 34.76409 -20.65807 26926 ft 459 kts 126°
2026-04-29 20:35 34.74734 -20.62516 26933 ft 459 kts 126°
2026-04-29 20:35 34.73050 -20.59221 26936 ft 458 kts 126°
2026-04-29 20:35 34.71363 -20.55932 26921 ft 458 kts 126°
2026-04-29 20:35 34.69673 -20.52640 26922 ft 459 kts 126°
2026-04-29 20:36 34.67980 -20.49349 26928 ft 459 kts 126°
2026-04-29 20:36 34.66283 -20.46051 26920 ft 459 kts 126°
2026-04-29 20:36 34.64593 -20.42768 26925 ft 459 kts 126°
2026-04-29 20:36 34.63473 -20.40586 26928 ft 459 kts 126°
2026-04-29 20:37 34.61232 -20.36221 26933 ft 459 kts 126°
2026-04-29 20:37 34.59541 -20.32937 26939 ft 459 kts 126°
2026-04-29 20:37 34.57845 -20.29648 26941 ft 459 kts 126°
2026-04-29 20:37 34.56149 -20.26368 26942 ft 459 kts 126°
2026-04-29 20:38 34.54452 -20.23086 26946 ft 459 kts 126°
2026-04-29 20:38 34.53300 -20.20863 26950 ft 459 kts 126°
2026-04-29 20:38 34.51626 -20.17628 26939 ft 459 kts 126°
2026-04-29 20:38 34.49907 -20.14309 26941 ft 460 kts 126°
2026-04-29 20:39 34.48224 -20.11056 26938 ft 460 kts 126°
2026-04-29 20:39 34.46531 -20.07777 26943 ft 460 kts 126°
2026-04-29 20:39 34.44831 -20.04488 26947 ft 460 kts 126°
2026-04-29 20:39 34.43125 -20.01200 26949 ft 460 kts 126°
2026-04-29 20:40 34.41423 -19.97927 26951 ft 460 kts 126°
2026-04-29 20:40 34.39710 -19.94652 26953 ft 460 kts 126°
2026-04-29 20:40 34.37994 -19.91376 26962 ft 460 kts 126°
2026-04-29 20:40 34.36279 -19.88101 26963 ft 460 kts 126°
2026-04-29 20:41 34.34570 -19.84835 26964 ft 460 kts 126°
2026-04-29 20:41 34.32856 -19.81557 26965 ft 460 kts 126°
2026-04-29 20:41 34.31147 -19.78288 26955 ft 460 kts 126°
2026-04-29 20:41 34.29432 -19.75009 26960 ft 460 kts 126°
2026-04-29 20:42 34.27723 -19.71746 26964 ft 460 kts 126°
2026-04-29 20:42 34.26011 -19.68482 26966 ft 460 kts 126°
2026-04-29 20:42 34.24293 -19.65214 26967 ft 459 kts 126°
2026-04-29 20:42 34.22584 -19.61967 26971 ft 459 kts 126°
2026-04-29 20:43 34.20870 -19.58707 26971 ft 459 kts 126°
2026-04-29 20:43 34.19153 -19.55446 26970 ft 459 kts 126°
2026-04-29 20:43 34.17434 -19.52187 26975 ft 459 kts 126°
2026-04-29 20:43 34.15721 -19.48942 26965 ft 459 kts 126°
2026-04-29 20:44 34.14022 -19.45727 26953 ft 460 kts 125°
2026-04-29 20:44 34.12306 -19.42478 26960 ft 460 kts 126°
2026-04-29 20:44 34.10565 -19.39182 26968 ft 460 kts 126°
2026-04-29 20:44 34.08862 -19.35961 26970 ft 459 kts 126°
2026-04-29 20:45 34.07141 -19.32711 26970 ft 459 kts 126°
2026-04-29 20:45 34.05420 -19.29458 26975 ft 459 kts 126°
2026-04-29 20:45 34.03715 -19.26245 26975 ft 459 kts 126°
2026-04-29 20:45 34.01995 -19.23009 26978 ft 459 kts 126°
2026-04-29 20:46 34.00271 -19.19769 26976 ft 459 kts 126°
2026-04-29 20:46 33.98552 -19.16540 26976 ft 457 kts 126°
2026-04-29 20:46 33.96873 -19.13380 26964 ft 437 kts 126°
2026-04-29 20:46 33.95254 -19.10342 27022 ft 434 kts 126°
2026-04-29 20:47 33.93589 -19.07239 26995 ft 448 kts 126°
2026-04-29 20:47 33.91875 -19.04042 26998 ft 458 kts 126°
2026-04-29 20:47 33.90143 -19.00804 26996 ft 462 kts 126°
2026-04-29 20:47 33.88400 -18.97545 27001 ft 464 kts 126°
2026-04-29 20:48 33.86653 -18.94278 27007 ft 464 kts 126°
2026-04-29 20:48 33.84904 -18.91013 27000 ft 464 kts 126°
2026-04-29 20:48 33.83155 -18.87756 27006 ft 465 kts 126°
2026-04-29 20:48 33.81424 -18.84528 27003 ft 465 kts 126°
2026-04-29 20:49 33.79652 -18.81227 27009 ft 464 kts 126°
2026-04-29 20:49 33.77916 -18.78000 26997 ft 465 kts 126°
2026-04-29 20:49 33.76157 -18.74742 27005 ft 466 kts 126°
2026-04-29 20:49 33.74394 -18.71478 27018 ft 466 kts 126°
2026-04-29 20:50 33.72633 -18.68214 27017 ft 466 kts 126°
2026-04-29 20:50 33.70867 -18.64941 27017 ft 466 kts 126°
2026-04-29 20:50 33.69104 -18.61672 27006 ft 466 kts 126°
2026-04-29 20:50 33.67341 -18.58414 27003 ft 466 kts 126°
2026-04-29 20:51 33.65573 -18.55152 27010 ft 466 kts 126°
2026-04-29 20:51 33.63805 -18.51889 27017 ft 466 kts 126°
2026-04-29 20:51 33.62036 -18.48618 27018 ft 466 kts 126°
2026-04-29 20:51 33.60277 -18.45371 27021 ft 466 kts 126°
2026-04-29 20:52 33.58507 -18.42109 27003 ft 466 kts 126°
2026-04-29 20:52 33.56734 -18.38855 27018 ft 467 kts 126°
2026-04-29 20:52 33.54948 -18.35590 27016 ft 467 kts 126°
2026-04-29 20:52 33.53170 -18.32337 27021 ft 467 kts 126°
2026-04-29 20:53 33.51396 -18.29083 27023 ft 467 kts 126°
2026-04-29 20:53 33.49619 -18.25823 27021 ft 467 kts 126°
2026-04-29 20:53 33.47841 -18.22564 27021 ft 467 kts 126°
2026-04-29 20:53 33.46061 -18.19299 27021 ft 467 kts 126°
2026-04-29 20:54 33.42360 -18.12923 27021 ft 463 kts 136°
2026-04-29 20:54 33.39921 -18.10470 27024 ft 457 kts 150°
2026-04-29 20:54 33.37114 -18.08839 27014 ft 453 kts 162°
2026-04-29 20:55 33.34150 -18.07562 27024 ft 454 kts 163°
2026-04-29 20:55 33.31165 -18.06299 27024 ft 454 kts 163°
2026-04-29 20:55 33.28181 -18.05048 27027 ft 455 kts 163°
2026-04-29 20:55 33.25195 -18.03799 27027 ft 455 kts 163°
2026-04-29 20:56 33.22218 -18.02554 27027 ft 454 kts 163°
2026-04-29 20:56 33.19224 -18.01298 27027 ft 454 kts 163°
2026-04-29 20:56 33.16244 -18.00044 27027 ft 454 kts 163°
2026-04-29 20:56 33.13256 -17.98782 27022 ft 455 kts 163°
2026-04-29 20:57 33.10273 -17.97521 27035 ft 455 kts 163°
2026-04-29 20:57 33.07288 -17.96262 27026 ft 455 kts 163°
2026-04-29 20:57 33.04301 -17.95009 27027 ft 455 kts 163°
2026-04-29 20:57 33.01313 -17.93756 27027 ft 455 kts 163°
2026-04-29 20:58 32.98358 -17.92518 27024 ft 456 kts 163°
2026-04-29 20:58 32.95328 -17.91247 27026 ft 455 kts 163°
2026-04-29 20:58 32.92337 -17.89992 27026 ft 455 kts 163°
2026-04-29 20:58 32.89388 -17.88754 27021 ft 456 kts 163°
2026-04-29 20:59 32.86392 -17.87500 27026 ft 456 kts 163°
2026-04-29 20:59 32.83406 -17.86253 27026 ft 456 kts 163°
2026-04-29 20:59 32.80403 -17.85000 27031 ft 456 kts 163°
2026-04-29 20:59 32.77413 -17.83754 27031 ft 456 kts 163°
2026-04-29 21:00 32.74418 -17.82505 27035 ft 456 kts 163°
2026-04-29 21:00 32.71428 -17.81260 27040 ft 456 kts 163°
2026-04-29 21:00 32.68426 -17.80013 27042 ft 456 kts 163°
2026-04-29 21:00 32.65425 -17.78767 27026 ft 456 kts 163°
2026-04-29 21:01 32.62437 -17.77525 27037 ft 456 kts 163°
2026-04-29 21:01 32.59431 -17.76274 27034 ft 456 kts 163°
2026-04-29 21:01 32.56483 -17.75047 27037 ft 456 kts 163°
2026-04-29 21:01 32.53487 -17.73801 27036 ft 456 kts 163°
2026-04-29 21:02 32.50491 -17.72556 27036 ft 456 kts 163°
2026-04-29 21:02 32.47499 -17.71315 27038 ft 455 kts 163°
2026-04-29 21:02 32.44512 -17.70078 27038 ft 455 kts 163°
2026-04-29 21:02 32.41518 -17.68839 27038 ft 455 kts 163°
2026-04-29 21:03 32.38526 -17.67603 27037 ft 456 kts 163°
2026-04-29 21:03 32.35527 -17.66363 27037 ft 456 kts 163°
2026-04-29 21:03 32.32526 -17.65123 27038 ft 456 kts 163°
2026-04-29 21:03 32.29533 -17.63888 27038 ft 456 kts 163°
2026-04-29 21:04 32.26540 -17.62652 27038 ft 456 kts 163°
2026-04-29 21:04 32.23539 -17.61412 27038 ft 456 kts 163°
2026-04-29 21:04 32.20550 -17.60181 27042 ft 456 kts 163°
2026-04-29 21:04 32.17548 -17.58947 27041 ft 456 kts 163°
2026-04-29 21:05 32.14551 -17.57716 27041 ft 456 kts 163°
2026-04-29 21:05 32.11561 -17.56490 27041 ft 456 kts 163°
2026-04-29 21:05 32.08560 -17.55257 27041 ft 456 kts 163°
2026-04-29 21:05 32.05561 -17.54023 27040 ft 456 kts 163°
2026-04-29 21:06 32.02567 -17.52791 27040 ft 456 kts 163°
2026-04-29 21:06 31.99610 -17.51576 27041 ft 456 kts 163°
2026-04-29 21:06 31.96568 -17.50332 27041 ft 456 kts 163°
2026-04-29 21:06 31.93608 -17.49125 27042 ft 456 kts 163°
2026-04-29 21:07 31.90613 -17.47904 27043 ft 457 kts 163°
2026-04-29 21:07 31.87601 -17.46677 27046 ft 458 kts 163°
2026-04-29 21:07 31.84594 -17.45451 27046 ft 458 kts 163°
2026-04-29 21:07 31.81582 -17.44222 27046 ft 458 kts 163°
2026-04-29 21:08 31.78573 -17.42992 27045 ft 458 kts 163°
2026-04-29 21:08 31.75567 -17.41763 27046 ft 457 kts 163°
2026-04-29 21:08 31.72563 -17.40537 27045 ft 457 kts 163°
2026-04-29 21:08 31.69544 -17.39306 27045 ft 457 kts 163°
2026-04-29 21:09 31.66542 -17.38083 27038 ft 457 kts 163°
2026-04-29 21:09 31.63541 -17.36860 27048 ft 457 kts 163°
2026-04-29 21:09 31.60541 -17.35637 27046 ft 457 kts 163°
2026-04-29 21:09 31.57526 -17.34411 27045 ft 457 kts 163°
2026-04-29 21:10 31.54559 -17.33208 27045 ft 457 kts 163°
2026-04-29 21:10 31.51552 -17.31990 27046 ft 457 kts 163°
2026-04-29 21:10 31.48500 -17.30760 27047 ft 457 kts 164°
2026-04-29 21:10 31.45532 -17.29564 27047 ft 457 kts 163°
2026-04-29 21:11 31.42523 -17.28349 27037 ft 457 kts 163°
2026-04-29 21:11 31.39511 -17.27136 27054 ft 458 kts 163°
2026-04-29 21:11 31.36495 -17.25920 27046 ft 458 kts 163°
2026-04-29 21:11 31.33492 -17.24707 27041 ft 458 kts 163°
2026-04-29 21:12 31.30467 -17.23485 27041 ft 458 kts 163°
2026-04-29 21:12 31.27461 -17.22268 27046 ft 458 kts 163°
2026-04-29 21:12 31.24452 -17.21052 27046 ft 458 kts 163°
2026-04-29 21:12 31.21436 -17.19840 27045 ft 458 kts 164°
2026-04-29 21:13 31.18420 -17.18632 27044 ft 458 kts 164°
2026-04-29 21:13 31.15405 -17.17423 27053 ft 458 kts 164°
2026-04-29 21:13 31.12385 -17.16208 27046 ft 459 kts 163°
2026-04-29 21:13 31.09369 -17.14993 27053 ft 459 kts 163°
2026-04-29 21:14 31.06345 -17.13778 27043 ft 459 kts 164°
2026-04-29 21:14 31.03326 -17.12569 27053 ft 459 kts 164°
2026-04-29 21:14 31.00313 -17.11366 27046 ft 459 kts 164°
2026-04-29 21:14 30.97288 -17.10160 27049 ft 459 kts 164°
2026-04-29 21:15 30.94308 -17.08972 27051 ft 459 kts 164°
2026-04-29 21:15 30.91251 -17.07748 27045 ft 459 kts 164°
2026-04-29 21:15 30.88274 -17.06554 27049 ft 459 kts 164°
2026-04-29 21:15 30.85224 -17.05328 27052 ft 459 kts 164°
2026-04-29 21:16 30.82197 -17.04115 27046 ft 459 kts 164°
2026-04-29 21:16 30.79184 -17.02911 27056 ft 459 kts 164°
2026-04-29 21:16 30.76199 -17.01721 27050 ft 459 kts 164°
2026-04-29 21:16 30.73176 -17.00520 27051 ft 459 kts 164°
2026-04-29 21:17 30.70160 -16.99325 27055 ft 459 kts 164°
2026-04-29 21:17 30.67139 -16.98126 27054 ft 458 kts 164°
2026-04-29 21:17 30.64121 -16.96925 27047 ft 459 kts 164°
2026-04-29 21:17 30.61102 -16.95723 27056 ft 459 kts 164°
2026-04-29 21:18 30.58083 -16.94524 27051 ft 459 kts 164°
2026-04-29 21:18 30.55059 -16.93327 27052 ft 459 kts 164°
2026-04-29 21:18 30.52046 -16.92135 27052 ft 459 kts 164°
2026-04-29 21:18 30.49023 -16.90935 27055 ft 459 kts 164°
2026-04-29 21:19 30.46000 -16.89734 27052 ft 459 kts 164°
2026-04-29 21:19 30.42984 -16.88536 27056 ft 459 kts 164°
2026-04-29 21:19 30.39966 -16.87340 27049 ft 459 kts 164°
2026-04-29 21:19 30.36951 -16.86145 27057 ft 458 kts 164°
2026-04-29 21:20 30.33933 -16.84951 27057 ft 458 kts 164°
2026-04-29 21:20 30.30914 -16.83761 27057 ft 458 kts 164°
2026-04-29 21:20 30.27899 -16.82575 27054 ft 458 kts 164°
2026-04-29 21:20 30.24881 -16.81387 27055 ft 458 kts 164°
2026-04-29 21:21 30.21871 -16.80202 27055 ft 458 kts 164°
2026-04-29 21:21 30.18879 -16.79025 27057 ft 458 kts 164°
2026-04-29 21:21 30.15871 -16.77843 27057 ft 458 kts 164°
2026-04-29 21:21 30.12856 -16.76662 27055 ft 457 kts 164°
2026-04-29 21:22 30.09840 -16.75480 27056 ft 457 kts 164°
2026-04-29 21:22 30.06825 -16.74297 27056 ft 457 kts 164°
2026-04-29 21:22 30.03818 -16.73118 27058 ft 457 kts 164°
2026-04-29 21:22 30.00794 -16.71933 27056 ft 457 kts 164°
2026-04-29 21:23 29.97783 -16.70753 27056 ft 457 kts 164°
2026-04-29 21:23 29.94776 -16.69572 27055 ft 457 kts 164°
2026-04-29 21:23 29.91768 -16.68390 27056 ft 457 kts 164°
2026-04-29 21:23 29.88759 -16.67213 27059 ft 456 kts 164°
2026-04-29 21:24 29.85757 -16.66045 27057 ft 456 kts 165°
2026-04-29 21:24 29.82744 -16.64869 27060 ft 456 kts 165°
2026-04-29 21:24 29.79737 -16.63692 27060 ft 456 kts 164°
2026-04-29 21:24 29.76778 -16.62531 27060 ft 456 kts 164°
2026-04-29 21:25 29.73772 -16.61354 27060 ft 456 kts 165°
2026-04-29 21:25 29.70762 -16.60180 27060 ft 456 kts 165°
2026-04-29 21:25 29.67763 -16.59012 27060 ft 456 kts 165°
2026-04-29 21:25 29.64746 -16.57841 27060 ft 456 kts 165°
2026-04-29 21:26 29.61742 -16.56676 27060 ft 456 kts 165°
2026-04-29 21:26 29.58731 -16.55504 27060 ft 456 kts 165°
2026-04-29 21:26 29.55728 -16.54332 27060 ft 456 kts 165°
2026-04-29 21:26 29.52725 -16.53164 27060 ft 456 kts 165°
2026-04-29 21:27 29.50733 -16.52390 27060 ft 456 kts 165°
2026-04-29 21:27 29.47730 -16.51223 27046 ft 456 kts 165°
2026-04-29 21:27 29.44721 -16.50056 26797 ft 457 kts 165°
2026-04-29 21:27 29.41709 -16.48888 26547 ft 457 kts 165°
2026-04-29 21:28 29.38696 -16.47726 26302 ft 457 kts 165°
2026-04-29 21:28 29.35671 -16.46557 26047 ft 458 kts 165°
2026-04-29 21:28 29.32671 -16.45399 25237 ft 455 kts 165°
2026-04-29 21:28 29.29669 -16.44240 24332 ft 453 kts 164°
2026-04-29 21:29 29.26689 -16.43088 23420 ft 451 kts 164°
2026-04-29 21:29 29.23731 -16.41948 22500 ft 447 kts 164°
2026-04-29 21:29 29.20789 -16.40815 21693 ft 443 kts 164°
2026-04-29 21:29 29.17880 -16.39695 20895 ft 438 kts 164°
2026-04-29 21:30 29.15007 -16.38587 20124 ft 434 kts 164°
2026-04-29 21:30 29.12156 -16.37488 19380 ft 431 kts 164°
2026-04-29 21:30 29.09317 -16.36393 18640 ft 427 kts 164°
2026-04-29 21:30 29.06516 -16.35314 17889 ft 423 kts 164°
2026-04-29 21:31 29.03749 -16.34253 17224 ft 417 kts 164°
2026-04-29 21:31 29.01008 -16.33203 16597 ft 410 kts 164°
2026-04-29 21:31 28.98330 -16.32174 15986 ft 405 kts 164°
2026-04-29 21:31 28.95670 -16.31151 15393 ft 400 kts 164°
2026-04-29 21:32 28.93055 -16.30147 14801 ft 395 kts 164°
2026-04-29 21:32 28.90494 -16.28999 14199 ft 397 kts 157°
2026-04-29 21:32 28.88012 -16.27591 13425 ft 397 kts 155°
2026-04-29 21:32 28.85553 -16.26174 12704 ft 394 kts 155°
2026-04-29 21:33 28.83118 -16.24771 12009 ft 391 kts 155°
2026-04-29 21:33 28.80699 -16.23379 11313 ft 388 kts 155°
2026-04-29 21:33 28.78299 -16.21999 10616 ft 385 kts 155°
2026-04-29 21:33 28.75936 -16.20640 10282 ft 372 kts 155°
2026-04-29 21:34 28.73680 -16.19337 10173 ft 354 kts 155°
2026-04-29 21:34 28.71538 -16.18094 10059 ft 338 kts 155°
2026-04-29 21:34 28.69410 -16.17161 9842 ft 316 kts 169°
2026-04-29 21:34 28.67359 -16.16630 9696 ft 291 kts 171°
2026-04-29 21:35 28.65454 -16.16152 9561 ft 269 kts 171°
2026-04-29 21:35 28.63696 -16.15720 9431 ft 249 kts 172°
2026-04-29 21:35 28.62063 -16.15321 9304 ft 233 kts 172°
2026-04-29 21:35 28.60504 -16.14943 9152 ft 225 kts 172°
2026-04-29 21:36 28.58987 -16.14578 8907 ft 222 kts 172°
2026-04-29 21:36 28.57479 -16.14215 8649 ft 220 kts 172°
2026-04-29 21:36 28.55987 -16.13854 8394 ft 218 kts 171°
2026-04-29 21:36 28.54540 -16.13501 8131 ft 214 kts 171°
2026-04-29 21:37 28.53088 -16.13145 7717 ft 213 kts 170°
2026-04-29 21:37 28.51643 -16.12792 7366 ft 210 kts 170°
2026-04-29 21:37 28.50243 -16.12451 7119 ft 203 kts 170°
2026-04-29 21:37 28.48871 -16.12117 6799 ft 200 kts 170°
2026-04-29 21:38 28.47514 -16.11787 6479 ft 199 kts 170°
2026-04-29 21:38 28.46163 -16.11457 6133 ft 198 kts 169°
2026-04-29 21:38 28.44820 -16.11146 5797 ft 196 kts 175°
2026-04-29 21:38 28.43500 -16.11348 5563 ft 191 kts 204°
2026-04-29 21:39 28.42443 -16.12232 5502 ft 190 kts 231°
2026-04-29 21:39 28.41869 -16.13565 5395 ft 191 kts 258°
2026-04-29 21:39 28.41915 -16.15060 5220 ft 191 kts 285°
2026-04-29 21:39 28.42369 -16.16460 4997 ft 187 kts 290°
2026-04-29 21:40 28.42823 -16.17801 4789 ft 174 kts 290°
2026-04-29 21:40 28.43241 -16.19049 4536 ft 165 kts 290°
2026-04-29 21:40 28.43645 -16.20261 4316 ft 163 kts 290°
2026-04-29 21:40 28.44045 -16.21462 4097 ft 162 kts 289°
2026-04-29 21:41 28.44436 -16.22652 3906 ft 155 kts 291°
2026-04-29 21:41 28.44812 -16.23729 3695 ft 145 kts 290°
2026-04-29 21:41 28.45159 -16.24778 3452 ft 140 kts 290°
2026-04-29 21:41 28.45500 -16.25821 3199 ft 144 kts 290°
2026-04-29 21:42 28.45855 -16.26898 3054 ft 147 kts 290°
2026-04-29 21:42 28.46205 -16.27974 2860 ft 141 kts 289°
2026-04-29 21:42 28.46555 -16.29024 2613 ft 143 kts 292°
2026-04-29 21:42 28.46907 -16.30060 2484 ft 134 kts 292°
2026-04-29 21:43 28.47224 -16.31043 2340 ft 133 kts 291°
2026-04-29 21:43 28.47561 -16.32024 2155 ft 134 kts 291°
2026-04-29 21:43 28.47880 -16.32992 2040 ft 126 kts 292°
2026-04-29 21:43 28.48141 -16.33775 2043 ft 82 kts 292°
2026-04-29 21:44 28.48287 -16.34217 2056 ft 46 kts 291°
2026-04-29 21:44 28.48390 -16.34518 2067 ft 36 kts 291°
2026-04-29 21:44 28.48469 -16.34749 2076 ft 27 kts 290°
2026-04-29 21:44 28.48522 -16.34918 2086 ft 19 kts 288°
2026-04-29 21:45 28.48561 -16.35043 2089 ft 17 kts 290°
2026-04-29 21:45 28.48609 -16.35169 2086 ft 20 kts 296°
2026-04-29 21:45 28.48696 -16.35305 2082 ft 14 kts 314°
2026-04-29 21:45 28.48751 -16.35292 2079 ft 8 kts 74°
2026-04-29 21:46 28.48730 -16.35199 2079 ft 14 kts 109°
2026-04-29 21:46 28.48699 -16.35106 2082 ft 12 kts 111°
2026-04-29 21:46 28.48654 -16.34967 2084 ft 24 kts 110°
2026-04-29 21:46 28.48592 -16.34788 2078 ft 26 kts 111°
2026-04-29 21:47 28.48521 -16.34579 2068 ft 27 kts 111°
2026-04-29 21:47 28.48524 -16.34502 2064 ft 10 kts 61°
2026-04-29 21:47 28.48588 -16.34470 2063 ft 11 kts 21°
2026-04-29 21:47 28.48612 -16.34463 2063 ft 0 kts 353°
2026-04-29 21:48 28.48619 -16.34464 2063 ft 0 kts 349°